TimeCST,TemperatureF,Dew PointF,Humidity,Sea Level PressureIn,VisibilityMPH,Wind Direction,Wind SpeedMPH,Gust SpeedMPH,PrecipitationIn,Events,Conditions,WindDirDegrees,DateUTC
12:54 AM,48.9,30.9,50,30.15,10.0,SSW,8.1,-,N/A,,Partly Cloudy,210,2013-11-11 06:54:00
1:54 AM,46.9,32.0,56,30.15,10.0,SSW,6.9,-,N/A,,Scattered Clouds,210,2013-11-11 07:54:00
2:54 AM,46.9,32.0,56,30.13,10.0,SW,8.1,-,N/A,,Scattered Clouds,220,2013-11-11 08:54:00
3:54 AM,46.9,34.0,61,30.12,10.0,SW,5.8,-,N/A,,Mostly Cloudy,220,2013-11-11 09:54:00
4:54 AM,45.0,34.0,65,30.12,10.0,West,3.5,-,N/A,,Mostly Cloudy,270,2013-11-11 10:54:00
5:54 AM,46.0,36.0,68,30.14,10.0,NW,3.5,-,N/A,,Mostly Cloudy,310,2013-11-11 11:54:00
6:54 AM,44.1,32.0,63,30.17,10.0,NNE,16.1,21.9,N/A,,Overcast,20,2013-11-11 12:54:00
7:54 AM,42.1,30.9,65,30.23,10.0,North,12.7,20.7,N/A,,Overcast,10,2013-11-11 13:54:00
8:54 AM,39.9,30.9,70,30.28,10.0,North,15.0,-,N/A,,Overcast,10,2013-11-11 14:54:00
9:45 AM,39.9,30.9,70,30.28,10.0,North,20.7,28.8,N/A,,Overcast,360,2013-11-11 15:45:00
9:54 AM,39.9,30.9,70,30.31,10.0,North,16.1,28.8,N/A,,Overcast,10,2013-11-11 15:54:00
10:54 AM,37.0,28.0,70,30.33,10.0,North,19.6,29.9,N/A,,Overcast,10,2013-11-11 16:54:00
11:54 AM,36.0,25.0,64,30.36,10.0,North,15.0,20.7,N/A,,Overcast,10,2013-11-11 17:54:00
12:18 PM,36.0,25.0,64,30.35,10.0,North,16.1,26.5,0.00,Snow,Light Snow,10,2013-11-11 18:18:00
12:54 PM,30.9,24.1,76,30.39,2.5,North,16.1,24.2,0.00,Snow,Light Snow,10,2013-11-11 18:54:00
1:13 PM,30.0,23.0,75,30.38,7.0,North,20.7,26.5,0.00,Snow,Light Snow,360,2013-11-11 19:13:00
1:54 PM,28.0,19.9,72,30.43,2.0,North,18.4,27.6,0.00,Snow,Light Snow,360,2013-11-11 19:54:00
2:00 PM,28.0,21.0,75,30.40,1.0,North,18.4,-,0.00,Snow,Light Snow,10,2013-11-11 20:00:00
2:12 PM,28.0,21.9,78,30.42,0.8,North,16.1,23.0,0.00,Snow,Light Snow,360,2013-11-11 20:12:00
2:27 PM,28.0,21.9,78,30.42,1.0,North,13.8,-,0.01,Snow,Light Snow,350,2013-11-11 20:27:00
2:54 PM,27.0,21.9,81,30.46,2.5,North,13.8,-,0.01,Snow,Light Snow,350,2013-11-11 20:54:00
3:06 PM,28.0,21.9,78,30.44,6.0,NNW,11.5,-,0.00,Snow,Light Snow,340,2013-11-11 21:06:00
3:54 PM,28.9,19.9,69,30.48,10.0,North,18.4,28.8,0.00,,Overcast,10,2013-11-11 21:54:00
4:18 PM,28.0,18.0,66,30.47,10.0,North,15.0,26.5,N/A,,Overcast,10,2013-11-11 22:18:00
4:54 PM,27.0,18.0,69,30.52,10.0,North,21.9,27.6,N/A,,Overcast,360,2013-11-11 22:54:00
5:05 PM,27.0,18.0,69,30.50,10.0,North,12.7,26.5,N/A,,Overcast,360,2013-11-11 23:05:00
5:54 PM,26.1,17.1,69,30.56,10.0,North,18.4,-,N/A,,Overcast,10,2013-11-11 23:54:00
6:17 PM,26.1,15.1,63,30.55,10.0,NNE,18.4,24.2,N/A,,Overcast,20,2013-11-12 00:17:00
6:54 PM,25.0,15.1,66,30.60,10.0,North,15.0,-,N/A,,Overcast,360,2013-11-12 00:54:00
7:54 PM,25.0,15.1,66,30.63,10.0,North,13.8,26.5,N/A,,Mostly Cloudy,350,2013-11-12 01:54:00
8:54 PM,23.0,12.9,65,30.66,10.0,North,16.1,-,N/A,,Mostly Cloudy,10,2013-11-12 02:54:00
9:54 PM,21.9,12.0,66,30.70,10.0,North,15.0,-,N/A,,Partly Cloudy,360,2013-11-12 03:54:00
10:54 PM,21.0,10.9,65,30.73,10.0,North,15.0,21.9,N/A,,Clear,10,2013-11-12 04:54:00
11:54 PM,19.9,10.0,65,30.75,10.0,North,11.5,-,N/A,,Clear,360,2013-11-12 05:54:00